This is the latest recevied weather packets stored in our database for station/object W5LND-10. If no packets are shown the sender has not sent any weather packets the latest 10 day(s).
| Time | Temp. | Humidity | Pressure | Rain* | Wind** | Luminosity | Snow |
|---|---|---|---|---|---|---|---|
| 1777923072 | 31.11° C | 33% | 1004.4 hPa | 0 mm | - | 717 W/m² | - |
| 1777922773 | 31.11° C | 33% | 1004.5 hPa | 0 mm | - | 807 W/m² | - |
| 1777922472 | 31.11° C | 34% | 1004.5 hPa | 0 mm | - | 888 W/m² | - |
| 1777922172 | 31.11° C | 34% | 1004.7 hPa | 0 mm | - | 1083 W/m² | - |
| 1777921873 | 31.11° C | 33% | 1004.7 hPa | 0 mm | - | 1058 W/m² | - |
| 1777921573 | 31.67° C | 33% | 1004.8 hPa | 0 mm | - | 1018 W/m² | - |
| 1777921272 | 31.11° C | 35% | 1004.9 hPa | 0 mm | - | 1020 W/m² | - |
| 1777920973 | 30.56° C | 35% | 1004.9 hPa | 0 mm | - | 1106 W/m² | - |
| 1777920673 | 30° C | 36% | 1005.1 hPa | 0 mm | - | 1055 W/m² | - |
| 1777920373 | 30° C | 36% | 1005.1 hPa | 0 mm | - | 1118 W/m² | - |
| 1777920073 | 30° C | 37% | 1005.3 hPa | 0 mm | - | 1144 W/m² | - |
| 1777919773 | 30° C | 36% | 1005.4 hPa | 0 mm | - | 1088 W/m² | - |
| 1777919473 | 29.44° C | 37% | 1005.4 hPa | 0 mm | - | 1035 W/m² | - |
| 1777919173 | 29.44° C | 37% | 1005.6 hPa | 0 mm | - | 557 W/m² | - |
| 1777918873 | 28.89° C | 38% | 1005.7 hPa | 0 mm | - | 768 W/m² | - |
| 1777918573 | 28.89° C | 38% | 1005.7 hPa | 0 mm | - | 826 W/m² | - |
| 1777918273 | 28.89° C | 39% | 1005.8 hPa | 0 mm | - | 728 W/m² | - |
| 1777917975 | 28.89° C | 39% | 1005.9 hPa | 0 mm | - | 1004 W/m² | - |
| 1777917676 | 28.89° C | 39% | 1006 hPa | 0 mm | - | 837 W/m² | - |
| 1777917373 | 28.33° C | 41% | 1006.2 hPa | 0 mm | - | 1020 W/m² | - |
| 1777917073 | 28.33° C | 41% | 1006.3 hPa | 0 mm | - | 1005 W/m² | - |
| 1777916773 | 28.33° C | 40% | 1006.5 hPa | 0 mm | - | 798 W/m² | - |
| 1777916473 | 28.33° C | 41% | 1006.5 hPa | 0 mm | - | 1051 W/m² | - |
| 1777916173 | 28.33° C | 41% | 1006.5 hPa | 0 mm | - | 784 W/m² | - |
| 1777915873 | 27.78° C | 42% | 1006.6 hPa | 0 mm | - | 1004 W/m² | - |
* Rain latest hour (hover to see other rain measurements)
** Current wind speed in m/s (hover to see current wind gust speed)